Flag for Germany Weather past 2 weeks in Grevenbroich, North Rhine-Westphalia, Germany

Now
54 °F

Passing clouds.


Feels Like: 49 °F
Forecast: 48 / 53 °F
Wind: 15 mph from Southwest

Location: Monchengladbach Airport

Current Time: Dec 22, 2014 at 7:14:03 PM

Latest Report: Dec 22, 2014 at 6:50 PM


Visibility: N/A

Pressure: 30.07 "Hg

Humidity: 82%

Dew point: 48 °F

Location of GrevenbroichLocation

Historic Weather in Grevenbroich — Graph

°F

Grevenbroich temperature yesterday

Maximum temperature yesterday: 46 °F (at 2:50 PM)
Minimum temperature yesterday: 41 °F (at 7:50 AM)
Average temperature yesterday: 44 °F

Past Weeks' High & Low Weather Summary

 TemperatureHumidityPressure
High55 °F (Dec 18, 12:20 PM)100% (Dec 8, 5:50 PM)30.39 "Hg (Dec 8, 5:50 PM)
Low30 °F (Dec 14, 7:50 AM)71% (Dec 8, 12:20 PM)29.42 "Hg (Dec 12, 12:50 PM)
Average44 °F87%29.95 "Hg
* Reported Dec 7 5:20 PM — Dec 22 5:50 PM, Grevenbroich, Weather by CustomWeather, © 2014

Note: Actual official high and low records may vary slightly from our data, if they occured in-between our weather recording intervals... More about our weather records

Advertising

Grevenbroich weather history for previous 24 hours

 ConditionsComfort  
Time TempWeatherWind HumidityBarometerVisibility
5:50 PM
Dec 22
54 °FPassing clouds.14 mph82%30.07 "HgN/A
5:20 PM52 °FPassing clouds.15 mph88%30.07 "HgN/A
4:50 PM52 °FPassing clouds.16 mph88%30.07 "HgN/A
4:20 PM52 °FPassing clouds.15 mph88%30.07 "HgN/A
3:50 PM52 °FPassing clouds.15 mph88%30.07 "HgN/A
3:20 PM52 °FPassing clouds.14 mph88%30.07 "HgN/A
2:50 PM50 °FPassing clouds.15 mph88%30.07 "HgN/A
2:20 PM50 °FPassing clouds.18 mph88%30.07 "HgN/A
1:50 PM50 °FPassing clouds.18 mph88%30.07 "HgN/A
1:20 PM50 °FPassing clouds.18 mph82%30.07 "HgN/A
12:50 PM50 °FPassing clouds.20 mph82%30.07 "HgN/A
12:20 PM48 °FPassing clouds.17 mph87%30.09 "HgN/A
11:50 AM48 °FPassing clouds.17 mph87%30.09 "HgN/A
11:20 AM48 °FPassing clouds.18 mph87%30.09 "HgN/A
10:50 AM48 °FPassing clouds.18 mph87%30.12 "HgN/A
10:20 AM48 °FPassing clouds.20 mph82%30.12 "HgN/A
9:50 AM48 °FPassing clouds.18 mph82%30.12 "HgN/A
9:20 AM48 °FPassing clouds.21 mph82%30.12 "HgN/A
8:50 AM48 °FPassing clouds.17 mph82%30.12 "HgN/A
8:20 AM48 °FPassing clouds.21 mph87%30.12 "HgN/A
7:50 AM48 °FPassing clouds.20 mph87%30.12 "HgN/A
8:20 PM
Dec 21
46 °FPassing clouds.13 mph93%30.24 "Hg5 mi
7:50 PM46 °FRain. Passing clouds.13 mph93%30.24 "Hg4 mi
7:20 PM46 °FLight rain. Passing clouds.13 mph93%30.27 "Hg4 mi
Weather by CustomWeather, © 2014

See weather overviewHow to use our weather pages